Regional Weather Roundup
Issued by NWS Upton, NY

Current Version | Previous Version | Text Only | Print | Product List | Glossary On
Versions: 1 2 3 4 5 6 7 8 9 10 11 12 13 14 15 16 17 18 19 20 21 22 23 24 25 26 27
000 ASUS41 KOKX 280708 RWROKX REGIONAL WEATHER ROUNDUP NATIONAL WEATHER SERVICE NEW YORK NY 300 AM EDT FRI APR 28 2017 NOTE: "FAIR" INDICATES FEW OR NO CLOUDS BELOW 12,000 FEET WITH NO SIGNIFICANT WEATHER AND/OR OBSTRUCTIONS TO VISIBILITY. NYZ071-072-176-178-NJZ106-104-280800- NEW YORK CITY METRO AREA CITY SKY/WX TMP DP RH WIND PRES REMARKS Central Park CLOUDY 58 57 97 CALM 29.89F FOG Wall St Helipt CLOUDY 57 55 94 NE6 29.87F Bronx Bot Gard N/A 57 55 94 NE1 29.90R LaGuardia APRT FOG 59 57 93 E5 29.86F VSB 1/4 Kennedy INTL FOG 56 56 100 SE6 29.87F VSB 1/4 Breezy Point N/A 52 N/A N/A E6 N/A Newark/Liberty FOG 56 56 100 CALM 29.87S VSB 1/2 Teterboro CLOUDY 59 57 93 CALM 29.85F FOG $$ NYZ177-179-078>081-280800- LONG ISLAND NEW YORK CITY SKY/WX TMP DP RH WIND PRES REMARKS Jones Beach N/A 54 N/A N/A S3 N/A Matinecock PT N/A 52 N/A N/A E3 N/A Farmingdale FOG 57 57 100 S7 29.88F VSB 1/2 MacArthur/ISP FOG 57 57 100 S6 29.88F VSB 3/4 Shirley CLOUDY 56 56 100 SE6 29.90F FOG Mt Sinai Harb N/A 57 N/A N/A S2G8 N/A Westhampton CLOUDY 56 54 93 SE5 29.92S FOG East Hampton FOG 53 52 98 CALM 29.91S VSB 1/2 Montauk N/A 52 52 100 S3 29.93S $$ NYZ052-065-067-280800- HUDSON VALLEY CITY SKY/WX TMP DP RH WIND PRES REMARKS White Plains DRZL/FOG 57 56 96 E6 29.87F VSB 1/4 Larchmont Harb N/A 52 N/A N/A N8 N/A Croton O-T Hud N/A 57 N/A N/A MISG N/A Newburgh CLOUDY 59 59 100 SE5 29.87F FOG Montgomery CLOUDY 60 58 92 CALM 29.85S Poughkeepsie CLOUDY 60 58 92 SE3 29.85F Albany CLOUDY 62 57 83 S13 29.85R $$ NJZ001-105-106-008-010-013-015-019>022-104-280800- NEW JERSEY CITY SKY/WX TMP DP RH WIND PRES REMARKS Newark/Liberty FOG 56 56 100 CALM 29.87S VSB 1/2 Teterboro CLOUDY 59 57 93 CALM 29.85F FOG Caldwell CLOUDY 58 57 97 E3 29.86F FOG Somerville LGT RAIN 59 57 93 CALM 29.84S FOG Linden CLOUDY 56 55 97 CALM 29.86F FOG Perth Amboy N/A 54 N/A N/A E2 N/A Sussex CLOUDY 58 58 100 CALM 29.87S Andover N/A 59 57 93 CALM 29.85F Trenton LGT RAIN 60 59 96 CALM 29.84F Millville MOCLDY 64 62 93 S3 29.86F Atlantic City CLOUDY 62 58 86 S7 29.87F Wrightstown PTCLDY 64 61 91 S10 29.83S Toms River MOCLDY 63 59 87 S5 29.87S Belmar CLOUDY 59 59 100 S3 29.87S FOG $$ PAZ047>061-062-071-280800- EASTERN PENNSYLVANIA CITY SKY/WX TMP DP RH WIND PRES REMARKS Philadelphia CLOUDY 66 63 90 S5 29.85S Allentown CLEAR 61 57 87 NE5 29.84S Scranton PTCLDY 66 60 81 SW3 29.85R $$ CTZ002-004>006-009-010-012-RIZ004-006-007-MAZ004-011-015-280800- SOUTHERN NEW ENGLAND IN CT CITY SKY/WX TMP DP RH WIND PRES REMARKS Bradley INTL DRIZZLE 58 58 100 S5 29.90R FOG Hartford CLOUDY 59 58 96 S3 29.90R FOG Danbury CLOUDY 56 56 100 VRB3 29.89S FOG Wtrbury/Oxford CLOUDY 55 54 94 SE5 29.90F VSB<1/4 Bridgeport FOG 52 51 97 E6 29.88F VSB 1/2 Meriden CLOUDY 60 58 92 CALM 29.90R FOG New Haven FOG 54 53 97 E8 29.89S VSB 1 Chester FOG 55 55 100 CALM 29.91S VSB<1/4 Groton CLOUDY 53 52 96 E3 29.92S FOG Wilimantic CLOUDY 59 58 96 S5 29.92R FOG IN RI CITY SKY/WX TMP DP RH WIND PRES REMARKS Providence FOG 54 54 100 S7 29.93F VSB 1/2 Block Island FOG 54 54 100 S10 29.93S VSB 3/4 Westerly FOG 55 54 96 E3 29.93F VSB 1 IN MA CITY SKY/WX TMP DP RH WIND PRES REMARKS Boston CLOUDY 57 56 96 S6 29.93S Worcester FOG 55 54 96 S7 29.91F VSB 1/4 Westfield CLOUDY 58 58 100 S5 29.90R FOG Provincetown CLOUDY 54 53 97 S8 29.96S FOG Nantucket FOG 51 50 96 SE8 29.97S VSB 1/4 $$ ANZ330-335-338-340-345-350-353-355-280800- COASTAL MARINE OBSERVATIONS STATION/POSITION TIME SKY/WX TEMP WIND PRES VSBY WAVE AIR SEA DIR/SP/G HT/PER (UTC) (F) (DEG/KT/KT) (MB) (MI) (FT/S) NY HARB ENTRANCE 0550 52 49 170/ 8/ 10 1011.7 4/10 20 S FIRE ISLAND 0650 54 49 190/ 14/ 17 1011.3 5/ 9 GREAT SOUTH BAY 0630 56 57 110/ 2/ 4 N/A 23 SSW MONTAUK P 0550 51 47 1013.0 6/10 15 E BARNEGAT LI 0630 51 N/A 5/ 9 HUDSON CANYON 0550 54 50 190/ 14/ 16 1013.3 6/ 9 KINGS POINT 0648 51 49 20/ 5/ 6 1011.4 EXECUTION ROCKS NOT AVBL CENTRAL LI SOUND 0645 47 70/ 6/ 6 N/A 0 EASTERN LI SOUND NOT AVBL ROBBINS REEF 0648 55 80/ 4/ 4 1011.5 $$ >>>>>>>>>>>>>>>>>>>>>>>>>>>> KEY <<<<<<<<<<<<<<<<<<<<<<<<<<< > < > SKY/WX - Sky Condition/Present Weather < > TMP - Temperature in Fahrenheit < > DP - Dew Point in Fahrenheit < > RH - Relative Humidity in Percent < > WIND - Direction (from) and Speed in MPH < > PRES - Mean Sea Level Pressure (inches of Hg) < > WCI - Wind Chill Index < > VSB - VISIBILITY IN MILES < > HX - HEAT INDEX < > TC - TEMPERATURE IN CELSIUS < > VRB - VARIABLE WIND DIRECTION < > < >>>>>>>>>>>>>>>>>>>>>>>>>>>> KEY <<<<<<<<<<<<<<<<<<<<<<<<<<<

USA.gov is the U.S. government's official web portal to all federal, state and local government web resources and services.